period_start,C,m1,H,J0,J1,J2,J3,J4,J5,JA,JB,JC,JD,JJ,JK,JN,#
2015-06-17 00:01:35,0.00,0.04,0.00,23.66,27.47,30.13,4.77,23.30,1016.08,2037.00,3502.05,3308.00,3594.00,350.22,346.95,22.25,0000 0000 0000 0000 000000
2015-06-17 00:06:36,-0.00,0.04,0.00,23.67,27.47,30.12,4.76,23.33,1016.02,2037.01,3502.12,3308.00,3594.02,350.03,346.77,22.28,0000 0000 0000 0000 000000
2015-06-17 00:11:37,0.00,0.04,0.00,23.67,27.47,30.10,4.78,23.37,1015.99,2037.00,3502.05,3308.00,3594.01,349.95,346.78,22.31,0000 0000 0000 0000 000000
2015-06-17 00:16:38,0.00,0.04,0.00,23.67,27.47,30.09,4.76,23.28,1015.86,2037.02,3502.02,3307.99,3594.01,350.06,346.75,22.34,0000 0000 0000 0000 000000
2015-06-17 00:21:39,0.00,0.04,0.00,23.68,27.47,30.07,4.73,23.46,1015.85,2037.00,3502.01,3307.99,3594.01,349.87,346.25,22.37,0000 0000 0000 0000 000000
2015-06-17 00:26:40,0.00,0.04,0.00,23.69,27.47,30.05,4.67,23.25,1015.93,2037.00,3502.01,3307.99,3594.00,349.28,345.91,22.40,0000 0000 0000 0000 000000
2015-06-17 00:31:41,-0.00,0.04,0.00,23.69,27.47,30.07,4.71,23.18,1015.81,2037.00,3502.02,3307.99,3594.01,349.97,346.22,22.43,0000 0000 0000 0000 000000
2015-06-17 00:36:42,0.00,0.04,0.00,23.70,27.47,30.10,4.74,23.20,1015.89,2037.01,3502.03,3307.99,3594.00,350.21,346.94,22.46,0000 0000 0000 0000 000000
2015-06-17 00:41:44,0.00,0.04,0.00,23.71,27.47,30.09,4.74,23.18,1015.93,2037.00,3502.04,3307.99,3594.00,349.78,346.33,22.49,0000 0000 0000 0000 000000
2015-06-17 00:46:45,0.00,0.04,0.00,23.72,27.47,30.11,4.73,23.27,1015.98,2037.00,3502.01,3307.99,3594.00,349.68,346.31,22.52,0000 0000 0000 0000 000000
2015-06-17 00:51:46,0.00,0.04,0.00,23.72,27.48,30.11,4.78,23.25,1015.85,2037.00,3502.01,3307.98,3594.00,350.19,346.72,22.55,0000 0000 0000 0000 000000
2015-06-17 00:56:47,-0.00,0.04,0.00,23.72,27.48,30.11,4.73,23.30,1015.95,2037.00,3502.01,3307.99,3594.00,349.72,346.59,22.57,0000 0000 0000 0000 000000
2015-06-17 01:01:48,0.00,0.04,0.00,23.73,27.49,30.09,4.76,23.18,1015.86,2037.00,3502.01,3307.98,3594.00,349.98,346.72,22.60,0000 0000 0000 0000 000000
2015-06-17 01:06:50,0.00,0.04,0.00,23.74,27.49,30.09,4.73,23.19,1015.81,2037.01,3502.01,3307.98,3594.00,349.90,346.41,22.63,0000 0000 0000 0000 000000
2015-06-17 01:11:51,0.00,0.04,0.00,23.75,27.50,30.11,4.82,23.18,1015.81,2037.00,3502.00,3307.98,3593.99,350.85,347.46,22.66,0000 0000 0000 0000 000000
2015-06-17 01:16:52,0.00,0.04,0.00,23.76,27.50,30.12,4.77,23.20,1015.73,2037.00,3502.00,3307.96,3593.99,350.29,346.72,22.69,0000 0000 0000 0000 000000
2015-06-17 01:21:53,-0.00,0.04,0.00,23.77,27.50,30.11,4.80,23.28,1015.65,2037.00,3502.00,3307.94,3593.99,350.06,346.16,22.72,0000 0000 0000 0000 000000
2015-06-17 01:26:54,0.00,0.04,0.00,23.77,27.50,30.11,4.78,23.23,1015.66,2037.00,3502.00,3307.95,3593.99,350.61,347.03,22.75,0000 0000 0000 0000 000000
2015-06-17 01:31:56,-0.00,0.04,0.00,23.78,27.50,30.09,4.75,23.18,1015.66,2037.00,3502.00,3307.95,3593.99,350.09,346.69,22.78,0000 0000 0000 0000 000000
2015-06-17 01:36:57,0.00,0.04,0.00,23.80,27.50,30.10,4.65,23.18,1015.64,2037.00,3502.00,3307.91,3593.98,349.72,346.27,22.81,0000 0000 0000 0000 000000
2015-06-17 01:41:58,-0.00,0.04,0.00,23.82,27.50,30.11,4.72,23.27,1015.64,2037.00,3502.00,3307.96,3593.98,349.71,346.05,22.84,0000 0000 0000 0000 000000
2015-06-17 01:46:59,0.00,0.04,0.00,23.82,27.51,30.11,4.74,23.25,1015.65,2037.00,3502.00,3307.92,3593.97,350.09,346.41,22.87,0000 0000 0000 0000 000000
2015-06-17 01:52:00,0.02,0.04,0.00,23.82,27.52,30.10,4.71,23.17,1015.64,2037.00,3501.99,3307.54,3593.87,350.00,346.51,22.90,0000 0000 0000 0000 000000
2015-06-17 01:57:02,-0.01,0.04,0.00,23.82,27.52,30.12,4.77,23.15,1015.64,2037.00,3501.99,3307.68,3593.89,350.86,347.38,22.93,0000 0000 0000 0000 000000
2015-06-17 02:02:03,-0.01,0.04,0.00,23.84,27.52,30.11,4.80,23.23,1015.64,2037.00,3501.99,3307.85,3593.94,349.93,346.35,22.96,0000 0000 0000 0000 000000
2015-06-17 02:07:04,0.01,0.04,0.00,23.86,27.52,30.11,4.76,23.18,1015.64,2037.00,3502.00,3307.71,3593.91,350.32,346.66,22.98,0000 0000 0000 0000 000000
2015-06-17 02:12:05,0.02,0.04,0.00,23.87,27.52,30.10,4.72,23.17,1015.64,2036.99,3502.00,3307.37,3593.56,349.80,346.18,23.01,0000 0000 0000 0000 000000
2015-06-17 02:17:06,-0.00,0.04,0.00,23.87,27.53,30.11,4.76,23.27,1015.64,2036.99,3501.99,3307.23,3593.46,350.08,346.44,23.04,0000 0000 0000 0000 000000
2015-06-17 02:22:07,0.01,0.04,0.00,23.87,27.54,30.12,4.70,23.27,1015.64,2036.97,3501.99,3307.18,3593.39,349.81,346.08,23.07,0000 0000 0000 0000 000000
2015-06-17 02:27:09,0.01,0.04,0.00,23.87,27.55,30.13,4.74,23.21,1015.64,2036.99,3501.99,3307.14,3593.25,349.88,346.26,23.10,0000 0000 0000 0000 000000
2015-06-17 02:32:10,0.00,0.04,0.00,23.90,27.55,30.10,4.72,23.20,1015.61,2036.98,3501.98,3307.13,3593.24,349.87,346.25,23.13,0000 0000 0000 0000 000000
2015-06-17 02:37:11,0.00,0.04,0.00,23.92,27.55,30.09,4.76,23.19,1015.41,2036.97,3501.97,3307.05,3593.11,349.84,346.05,23.16,0000 0000 0000 0000 000000
2015-06-17 02:42:12,-0.00,0.04,0.00,23.93,27.55,30.10,4.75,23.18,1015.35,2036.98,3501.96,3307.07,3593.12,350.44,346.60,23.19,0000 0000 0000 0000 000000
2015-06-17 02:47:14,0.00,0.04,0.00,23.95,27.56,30.12,4.73,23.16,1015.19,2036.97,3501.96,3307.02,3593.05,349.43,345.77,23.22,0000 0000 0000 0000 000000
2015-06-17 02:52:15,0.00,0.04,0.00,23.96,27.57,30.10,4.74,23.18,1015.17,2036.94,3501.88,3307.01,3593.03,350.21,346.18,23.25,0000 0000 0000 0000 000000
2015-06-17 02:57:16,-0.00,0.04,0.00,23.98,27.57,30.10,4.72,23.10,1015.16,2036.92,3501.82,3307.01,3593.00,349.97,345.77,23.28,0000 0000 0000 0000 000000
2015-06-17 03:02:18,0.00,0.04,0.00,24.00,27.57,30.11,4.80,23.12,1015.18,2036.97,3501.87,3307.00,3593.01,350.43,346.25,23.31,0000 0000 0000 0000 000000
2015-06-17 03:07:19,-0.00,0.04,0.00,24.01,27.58,30.08,4.71,23.13,1015.21,2036.93,3501.67,3307.00,3593.00,349.83,346.04,23.34,0000 0000 0000 0000 000000
2015-06-17 03:12:20,0.00,0.04,0.00,24.03,27.59,30.10,4.74,23.21,1015.21,2036.86,3501.36,3307.00,3593.00,350.03,346.53,23.37,0000 0000 0000 0000 000000
2015-06-17 03:17:21,0.00,0.04,0.00,24.06,27.60,30.09,4.80,23.19,1015.17,2036.84,3501.23,3307.00,3593.00,350.11,345.96,23.40,0000 0000 0000 0000 000000
2015-06-17 03:22:23,-0.03,0.04,0.00,24.08,27.60,30.08,4.71,23.20,1015.16,2036.62,3501.04,3306.99,3592.99,349.80,345.88,23.42,0000 0000 0000 0000 000000
2015-06-17 03:27:24,0.01,0.04,0.00,24.10,27.60,30.08,4.76,23.23,1015.16,2036.59,3501.01,3306.98,3592.99,349.96,345.95,23.45,0000 0000 0000 0000 000000
2015-06-17 03:32:25,-0.03,0.04,0.00,24.10,27.62,30.07,4.74,23.27,1015.16,2036.43,3501.01,3306.97,3592.96,349.81,345.55,23.48,0000 0000 0000 0000 000000
2015-06-17 03:37:26,-0.02,0.04,0.00,24.12,27.62,30.09,4.72,23.11,1015.16,2036.33,3501.00,3306.95,3592.95,349.99,345.88,23.51,0000 0000 0000 0000 000000
2015-06-17 03:42:27,0.01,0.04,0.00,24.14,27.62,30.10,4.74,23.13,1015.16,2036.32,3501.00,3306.93,3592.93,350.09,346.00,23.54,0000 0000 0000 0000 000000
2015-06-17 03:47:28,-0.03,0.04,0.00,24.16,27.64,30.08,4.72,23.20,1015.15,2036.16,3501.00,3306.81,3592.83,350.17,345.75,23.57,0000 0000 0000 0000 000000
2015-06-17 03:52:29,0.02,0.04,0.00,24.18,27.65,30.09,4.67,23.07,1015.15,2036.16,3501.00,3306.71,3592.83,349.92,345.65,23.60,0000 0000 0000 0000 000000
2015-06-17 03:57:30,0.00,0.04,0.00,24.20,27.65,30.10,4.72,23.14,1015.15,2036.19,3500.99,3306.53,3592.67,350.10,345.91,23.63,0000 0000 0000 0000 000000
2015-06-17 04:02:32,0.01,0.04,0.00,24.21,27.66,30.11,4.77,23.24,1015.13,2036.05,3500.97,3306.16,3592.27,350.20,345.85,23.66,0000 0000 0000 0000 000000
2015-06-17 04:07:33,0.01,0.04,0.00,24.22,27.67,30.11,4.66,23.05,1015.01,2036.04,3500.88,3306.08,3592.09,349.62,345.48,23.69,0000 0000 0000 0000 000000
2015-06-17 04:12:34,0.00,0.04,0.00,24.24,27.67,30.11,4.75,23.16,1014.94,2036.04,3500.91,3306.02,3592.02,349.89,345.56,23.72,0000 0000 0000 0000 000000
2015-06-17 04:17:36,0.01,0.04,0.00,24.26,27.68,30.14,4.70,23.10,1014.91,2036.00,3500.65,3306.01,3592.02,350.06,345.65,23.75,0000 0000 0000 0000 000000
2015-06-17 04:22:37,0.01,0.04,0.00,24.27,27.70,30.12,4.71,23.23,1014.72,2036.00,3500.08,3306.00,3592.00,349.77,345.50,23.78,0000 0000 0000 0000 000000
2015-06-17 04:27:38,-0.00,0.04,0.00,24.28,27.70,30.13,4.78,23.07,1014.67,2036.00,3500.07,3306.00,3592.00,350.25,345.50,23.81,0000 0000 0000 0000 000000
2015-06-17 04:32:39,0.00,0.04,0.00,24.31,27.71,30.13,4.71,23.05,1014.66,2036.00,3500.03,3306.00,3591.99,349.90,345.53,23.83,0000 0000 0000 0000 000000
2015-06-17 04:37:40,0.00,0.04,0.00,24.33,27.72,30.14,4.71,23.16,1014.66,2036.00,3500.00,3305.98,3591.99,349.96,345.49,23.86,0000 0000 0000 0000 000000
2015-06-17 04:42:41,0.00,0.04,0.00,24.35,27.72,30.15,4.79,23.11,1014.65,2036.00,3500.00,3305.98,3591.96,350.67,346.11,23.89,0000 0000 0000 0000 000000
2015-06-17 04:47:43,0.00,0.04,0.00,24.35,27.74,30.15,4.69,23.04,1014.65,2036.00,3500.00,3305.98,3591.97,349.90,345.44,23.92,0000 0000 0000 0000 000000
2015-06-17 04:52:44,0.01,0.04,0.00,24.37,27.75,30.15,4.76,23.12,1014.56,2036.00,3500.00,3305.89,3591.73,350.46,345.72,23.95,0000 0000 0000 0000 000000
2015-06-17 04:57:46,0.01,0.04,0.00,24.38,27.75,30.18,4.80,22.98,1014.35,2036.00,3500.00,3305.82,3591.59,350.77,346.10,23.98,0000 0000 0000 0000 000000
2015-06-17 05:02:47,0.02,0.04,0.00,24.40,27.77,30.18,4.75,23.07,1014.21,2036.00,3499.98,3305.49,3591.27,349.95,345.03,24.01,0000 0000 0000 0000 000000
2015-06-17 05:07:48,0.01,0.04,0.00,24.42,27.77,30.20,4.72,23.20,1014.21,2036.00,3499.87,3305.12,3591.06,350.71,345.87,24.04,0000 0000 0000 0000 000000
2015-06-17 05:12:49,0.01,0.04,0.00,24.44,27.79,30.21,4.75,23.03,1014.19,2035.99,3499.53,3305.04,3591.02,349.82,345.10,24.07,0000 0000 0000 0000 000000
2015-06-17 05:17:50,0.00,0.04,0.00,24.46,27.80,30.19,4.68,23.09,1014.18,2035.99,3499.29,3305.02,3591.01,349.81,345.06,24.10,0000 0000 0000 0000 000000
2015-06-17 05:22:52,0.00,0.04,0.00,24.47,27.80,30.21,4.76,23.08,1014.18,2035.99,3499.07,3305.00,3591.00,350.48,345.50,24.13,0000 0000 0000 0000 000000
2015-06-17 05:27:53,0.00,0.04,0.00,24.50,27.82,30.22,4.72,23.11,1014.18,2035.98,3499.04,3305.00,3591.00,349.94,345.02,24.16,0000 0000 0000 0000 000000
2015-06-17 05:32:54,0.00,0.04,0.00,24.51,27.82,30.21,4.71,23.03,1014.18,2035.98,3499.03,3305.00,3591.00,350.44,345.51,24.19,0000 0000 0000 0000 000000
2015-06-17 05:37:55,-0.00,0.04,0.00,24.52,27.84,30.24,4.72,23.00,1014.18,2035.97,3499.01,3305.00,3591.00,350.02,345.01,24.22,0000 0000 0000 0000 000000
2015-06-17 05:42:56,-0.00,0.04,0.00,24.54,27.85,30.25,4.72,22.95,1014.18,2035.97,3499.00,3304.99,3590.96,349.83,345.13,24.24,0000 0000 0000 0000 000000
2015-06-17 05:47:58,-0.00,0.04,0.00,24.56,27.86,30.26,4.78,23.06,1014.14,2035.96,3498.99,3304.98,3590.94,350.74,345.65,24.27,0000 0000 0000 0000 000000
2015-06-17 05:52:59,0.01,0.04,0.00,24.58,27.87,30.27,4.70,23.07,1014.05,2035.94,3498.95,3304.90,3590.72,350.25,345.25,24.30,0000 0000 0000 0000 000000
2015-06-17 05:58:00,0.02,0.04,0.00,24.60,27.89,30.27,4.71,23.08,1014.02,2035.89,3498.78,3304.58,3590.25,349.59,344.52,24.33,0000 0000 0000 0000 000000
2015-06-17 06:03:01,0.02,0.05,0.00,24.62,27.90,30.29,4.75,23.06,1013.90,2035.75,3498.20,3304.17,3590.04,350.56,345.44,24.36,0000 0000 0000 0000 000000
2015-06-17 06:08:02,-0.03,0.05,0.00,24.63,27.92,30.29,4.75,23.07,1013.86,2035.63,3498.03,3304.03,3590.01,349.83,344.70,24.39,0000 0000 0000 0000 000000
2015-06-17 06:13:04,0.01,0.04,0.00,24.66,27.92,30.31,4.74,23.03,1013.72,2035.51,3498.01,3304.00,3590.00,350.31,344.99,24.42,0000 0000 0000 0000 000000
2015-06-17 06:18:05,-0.04,0.04,0.00,24.66,27.95,30.33,4.73,22.99,1013.69,2035.33,3498.00,3304.00,3589.98,349.64,344.37,24.45,0000 0000 0000 0000 000000
2015-06-17 06:23:06,-0.02,0.04,0.00,24.67,27.95,30.35,4.77,23.13,1013.69,2035.10,3497.87,3303.99,3589.93,350.09,344.83,24.48,0000 0000 0000 0000 000000
2015-06-17 06:28:07,0.02,0.04,0.00,24.70,27.97,30.35,4.76,23.05,1013.69,2035.08,3497.55,3303.95,3589.61,350.36,344.96,24.51,0000 0000 0000 0000 000000
2015-06-17 06:33:08,0.02,0.04,0.00,24.71,27.98,30.37,4.74,23.07,1013.68,2035.04,3497.12,3303.68,3589.11,349.77,344.63,24.54,0000 0000 0000 0000 000000
2015-06-17 06:38:09,0.02,0.04,0.00,24.72,28.00,30.39,4.76,23.06,1013.68,2035.00,3497.01,3303.08,3589.00,350.62,345.24,24.57,0000 0000 0000 0000 000000
2015-06-17 06:43:10,0.00,0.04,0.00,24.74,28.01,30.39,4.71,23.02,1013.69,2035.00,3496.98,3303.00,3589.00,349.90,344.69,24.60,0000 0000 0000 0000 000000
2015-06-17 06:48:12,0.01,0.05,0.00,24.76,28.02,30.41,4.72,23.06,1013.68,2035.00,3496.77,3303.00,3588.94,350.30,344.68,24.63,0000 0000 0000 0000 000000
2015-06-17 06:53:12,0.03,0.05,0.00,24.77,28.04,30.42,4.73,23.07,1013.67,2035.00,3496.22,3302.97,3588.60,350.58,345.05,24.65,0000 0000 0000 0000 000000
2015-06-17 06:58:14,0.02,0.05,0.00,24.80,28.05,30.43,4.73,23.16,1013.50,2035.00,3496.01,3302.79,3588.10,349.89,344.46,24.68,0000 0000 0000 0000 000000
2015-06-17 07:03:15,0.01,0.05,0.00,24.82,28.07,30.44,4.67,23.07,1013.23,2034.99,3496.00,3302.34,3588.01,350.18,344.72,24.71,0000 0000 0000 0000 000000
2015-06-17 07:08:16,0.01,0.05,0.00,24.85,28.08,30.45,4.68,23.09,1013.20,2034.99,3495.99,3302.07,3588.00,350.16,344.49,24.74,0000 0000 0000 0000 000000
2015-06-17 07:13:18,0.00,0.05,0.00,24.88,28.10,30.47,4.75,23.00,1013.20,2034.99,3495.91,3302.01,3587.99,349.82,344.09,24.77,0000 0000 0000 0000 000000
2015-06-17 07:18:19,0.01,0.05,0.00,24.89,28.12,30.48,4.67,23.07,1013.17,2034.99,3495.29,3302.00,3587.96,349.94,344.22,24.80,0000 0000 0000 0000 000000
2015-06-17 07:23:20,0.02,0.05,0.00,24.91,28.13,30.49,4.73,23.19,1012.85,2034.96,3495.01,3301.97,3587.25,349.99,344.08,24.83,0000 0000 0000 0000 000000
2015-06-17 07:28:21,0.00,0.05,0.00,24.93,28.15,30.51,4.67,23.01,1012.73,2034.95,3495.00,3301.91,3587.06,350.65,344.76,24.86,0000 0000 0000 0000 000000
2015-06-17 07:33:22,0.02,0.05,0.00,24.96,28.16,30.52,4.67,22.87,1012.71,2034.92,3494.90,3301.41,3587.00,350.08,344.02,24.89,0000 0000 0000 0000 000000
2015-06-17 07:38:23,0.01,0.05,0.00,24.98,28.17,30.54,4.77,23.01,1012.71,2034.82,3494.44,3301.03,3586.98,350.05,343.81,24.92,0000 0000 0000 0000 000000
2015-06-17 07:43:24,-0.04,0.05,0.00,25.00,28.20,30.55,4.72,22.93,1012.70,2034.48,3494.01,3301.00,3586.66,350.13,344.05,24.95,0000 0000 0000 0000 000000
2015-06-17 07:48:26,-0.01,0.05,0.00,25.01,28.21,30.56,4.65,22.98,1012.63,2034.20,3493.96,3300.99,3586.08,349.72,343.72,24.98,0000 0000 0000 0000 000000
2015-06-17 07:53:27,0.02,0.05,0.00,25.02,28.22,30.58,4.71,23.03,1012.49,2034.18,3493.47,3300.72,3586.00,349.88,343.74,25.01,0000 0000 0000 0000 000000
2015-06-17 07:58:28,0.02,0.05,0.00,25.05,28.25,30.60,4.66,23.00,1012.28,2034.20,3493.12,3300.31,3586.00,349.50,343.40,25.04,0000 0000 0000 0000 000000
2015-06-17 08:03:29,0.00,0.05,0.00,25.08,28.26,30.61,4.67,22.93,1012.26,2034.10,3492.99,3300.02,3585.89,349.65,343.44,25.06,0000 0000 0000 0000 000000
2015-06-17 08:08:30,0.00,0.05,0.00,25.13,28.29,30.61,4.71,22.96,1012.24,2034.03,3492.94,3300.00,3585.29,349.69,343.32,25.09,0000 0000 0000 0000 000000
2015-06-17 08:13:32,0.03,0.05,0.00,25.19,28.30,30.62,4.72,23.08,1012.22,2034.02,3492.21,3299.92,3585.01,349.94,343.53,25.12,0000 0000 0000 0000 000000
2015-06-17 08:18:33,0.03,0.05,0.00,25.24,28.32,30.64,4.70,23.04,1012.22,2034.00,3492.01,3299.34,3584.99,350.07,343.37,25.15,0000 0000 0000 0000 000000
2015-06-17 08:23:34,0.02,0.05,0.00,25.29,28.35,30.65,4.66,23.05,1012.22,2034.00,3491.86,3299.01,3584.51,350.09,343.61,25.18,0000 0000 0000 0000 000000
2015-06-17 08:28:36,0.02,0.05,0.00,25.34,28.37,30.68,4.69,23.09,1012.21,2034.00,3491.36,3299.00,3584.13,349.87,343.43,25.21,0000 0000 0000 0000 000000
2015-06-17 08:33:37,0.01,0.05,0.00,25.37,28.40,30.70,4.73,23.14,1012.03,2033.99,3491.03,3298.84,3584.00,350.34,343.66,25.24,0000 0000 0000 0000 000000
2015-06-17 08:38:38,0.03,0.05,0.00,25.42,28.43,30.72,4.73,23.02,1011.78,2033.96,3490.81,3298.11,3583.85,350.58,343.80,25.27,0000 0000 0000 0000 000000
2015-06-17 08:43:40,0.03,0.06,0.00,25.46,28.46,30.75,4.64,23.07,1011.74,2033.92,3490.11,3297.99,3583.11,349.58,342.78,25.30,0000 0000 0000 0000 000000
2015-06-17 08:48:41,-0.03,0.06,0.00,25.50,28.48,30.79,4.69,23.07,1011.73,2033.69,3489.99,3297.89,3583.00,350.04,343.01,25.33,0000 0000 0000 0000 000000
2015-06-17 08:53:42,-0.03,0.05,0.00,25.54,28.51,30.81,4.67,23.09,1011.73,2033.27,3489.65,3297.24,3582.99,349.80,342.88,25.36,0000 0000 0000 0000 000000
2015-06-17 08:58:43,0.01,0.05,0.00,25.59,28.54,30.85,4.71,23.07,1011.73,2033.10,3489.04,3297.01,3582.59,349.69,342.65,25.39,0000 0000 0000 0000 000000
2015-06-17 09:03:44,0.01,0.05,0.00,25.63,28.58,30.89,4.72,23.02,1011.69,2033.02,3488.99,3296.98,3582.05,350.02,342.98,25.42,0000 0000 0000 0000 000000
2015-06-17 09:08:45,0.04,0.06,0.00,25.67,28.61,30.91,4.63,22.95,1011.68,2033.00,3488.37,3296.50,3581.96,349.54,342.45,25.45,0000 0000 0000 0000 000000
2015-06-17 09:13:46,0.03,0.06,0.00,25.71,28.64,30.95,4.70,23.08,1011.67,2032.99,3488.01,3296.02,3581.29,350.38,343.12,25.47,0000 0000 0000 0000 000000
2015-06-17 09:18:47,0.02,0.06,0.00,25.76,28.67,30.99,4.61,23.07,1011.67,2032.97,3487.53,3295.91,3580.99,349.68,342.49,25.50,0000 0000 0000 0000 000000
2015-06-17 09:23:48,0.04,0.06,0.00,25.81,28.71,31.01,4.61,22.96,1011.61,2032.91,3487.01,3295.20,3580.57,350.18,342.98,25.53,0000 0000 0000 0000 000000
2015-06-17 09:28:50,-0.06,0.06,0.00,25.86,28.74,31.05,4.68,22.97,1011.40,2032.55,3486.68,3294.99,3580.05,349.98,342.56,25.56,0000 0000 0000 0000 000000
2015-06-17 09:33:51,-0.00,0.06,0.00,25.91,28.78,31.08,4.72,23.04,1011.30,2032.19,3486.10,3294.86,3579.99,350.67,343.21,25.59,0000 0000 0000 0000 000000
2015-06-17 09:38:52,0.02,0.06,0.00,25.95,28.82,31.13,4.67,23.00,1011.26,2032.04,3486.00,3294.18,3579.49,350.09,342.63,25.62,0000 0000 0000 0000 000000
2015-06-17 09:43:53,0.01,0.06,0.00,26.01,28.86,31.17,4.69,22.96,1011.25,2032.00,3485.73,3294.00,3579.01,349.85,342.11,25.65,0000 0000 0000 0000 000000
2015-06-17 09:48:55,0.02,0.06,0.00,26.05,28.89,31.21,4.67,22.97,1011.25,2032.00,3485.05,3293.89,3578.85,349.92,342.25,25.68,0000 0000 0000 0000 000000
2015-06-17 09:53:56,0.05,0.06,0.00,26.10,28.93,31.24,4.68,23.02,1011.23,2031.99,3484.97,3293.15,3578.12,349.82,342.04,25.71,0000 0000 0000 0000 000000
2015-06-17 09:58:57,0.02,0.06,0.00,26.15,28.97,31.28,4.62,23.05,1011.22,2031.95,3484.32,3292.99,3577.99,349.51,341.87,25.74,0000 0000 0000 0000 000000
2015-06-17 10:03:58,-0.03,0.06,0.00,26.19,29.01,31.32,4.67,22.93,1011.06,2031.70,3484.00,3292.79,3577.64,349.71,341.82,25.77,0000 0000 0000 0000 000000
2015-06-17 10:09:00,-0.02,0.06,0.00,26.24,29.06,31.36,4.64,22.98,1010.85,2031.17,3483.75,3292.10,3577.02,349.43,341.54,25.80,0000 0000 0000 0000 000000
2015-06-17 10:14:01,0.00,0.06,0.00,26.29,29.10,31.41,4.69,22.97,1010.79,2031.03,3483.08,3292.00,3576.93,350.31,342.17,25.83,0000 0000 0000 0000 000000
2015-06-17 10:19:02,0.05,0.06,0.00,26.33,29.14,31.45,4.66,22.96,1010.78,2030.99,3482.90,3291.42,3576.13,350.04,341.89,25.86,0000 0000 0000 0000 000000
2015-06-17 10:24:03,0.02,0.06,0.00,26.38,29.19,31.50,4.71,22.97,1010.77,2030.96,3482.15,3291.01,3575.99,350.07,341.69,25.88,0000 0000 0000 0000 000000
2015-06-17 10:29:05,-0.03,0.06,0.00,26.43,29.23,31.55,4.70,22.89,1010.76,2030.72,3481.99,3290.88,3575.29,350.12,341.93,25.91,0000 0000 0000 0000 000000
2015-06-17 10:34:06,-0.02,0.06,0.00,26.47,29.27,31.59,4.68,22.82,1010.76,2030.14,3481.42,3290.20,3574.99,350.14,341.84,25.94,0000 0000 0000 0000 000000
2015-06-17 10:39:07,0.02,0.06,0.00,26.51,29.32,31.64,4.61,22.93,1010.76,2030.01,3481.00,3289.98,3574.32,349.73,341.48,25.97,0000 0000 0000 0000 000000
2015-06-17 10:44:09,0.04,0.06,0.00,26.56,29.37,31.70,4.70,22.85,1010.60,2030.00,3480.56,3289.49,3574.00,350.80,342.16,26.00,0000 0000 0000 0000 000000
2015-06-17 10:49:10,0.03,0.06,0.00,26.62,29.42,31.76,4.64,22.88,1010.38,2029.99,3480.04,3289.02,3573.70,349.58,341.07,26.03,0000 0000 0000 0000 000000
2015-06-17 10:54:11,-0.00,0.06,0.00,26.66,29.46,31.82,4.63,22.95,1010.29,2029.78,3479.75,3288.76,3573.03,350.12,341.28,26.06,0000 0000 0000 0000 000000
2015-06-17 10:59:12,-0.04,0.06,0.00,26.71,29.51,31.88,4.64,22.87,1010.28,2029.15,3479.04,3288.05,3572.52,349.87,341.17,26.09,0000 0000 0000 0000 000000
2015-06-17 11:04:14,0.01,0.06,0.00,26.75,29.56,31.93,4.71,22.86,1010.27,2029.01,3478.90,3287.98,3572.02,350.37,341.68,26.12,0000 0000 0000 0000 000000
2015-06-17 11:09:15,0.05,0.06,0.00,26.79,29.61,31.98,4.67,22.77,1010.27,2029.00,3478.26,3287.54,3571.83,350.42,341.46,26.15,0000 0000 0000 0000 000000
2015-06-17 11:14:16,0.02,0.06,0.00,26.80,29.65,32.03,4.62,22.81,1010.27,2028.95,3477.97,3287.01,3571.07,349.56,340.66,26.18,0000 0000 0000 0000 000000
2015-06-17 11:19:17,-0.02,0.06,0.00,26.82,29.69,32.09,4.60,22.90,1010.27,2028.64,3477.33,3286.69,3570.81,349.43,340.63,26.21,0000 0000 0000 0000 000000
2015-06-17 11:24:19,-0.01,0.06,0.00,26.82,29.74,32.13,4.60,22.68,1010.27,2028.09,3476.99,3286.03,3570.06,349.47,340.71,26.24,0000 0000 0000 0000 000000
2015-06-17 11:29:20,0.00,0.06,0.00,26.82,29.77,32.15,4.65,22.79,1010.26,2028.01,3476.61,3285.99,3569.99,349.28,340.38,26.27,0000 0000 0000 0000 000000
2015-06-17 11:34:21,0.05,0.06,0.00,26.82,29.81,32.19,4.62,22.74,1010.27,2028.00,3476.03,3285.56,3569.49,349.90,341.02,26.29,0000 0000 0000 0000 000000
2015-06-17 11:39:22,0.02,0.07,0.00,26.82,29.85,32.21,4.69,22.80,1010.15,2027.99,3475.83,3285.02,3569.01,349.82,340.99,26.32,0000 0000 0000 0000 000000
2015-06-17 11:44:24,0.01,0.07,0.00,26.82,29.88,32.24,4.64,22.82,1010.14,2027.88,3475.08,3284.91,3568.73,350.07,341.16,26.35,0000 0000 0000 0000 000000
2015-06-17 11:49:25,-0.03,0.07,0.00,26.82,29.91,32.27,4.66,22.77,1009.90,2027.51,3474.97,3284.22,3568.05,349.68,340.69,26.38,0000 0000 0000 0000 000000
2015-06-17 11:54:26,-0.02,0.06,0.00,26.82,29.95,32.29,4.68,22.83,1009.80,2027.07,3474.32,3284.00,3567.99,350.28,341.35,26.41,0000 0000 0000 0000 000000
2015-06-17 11:59:27,0.01,0.06,0.00,26.83,29.98,32.32,4.68,22.79,1009.79,2027.01,3474.00,3283.96,3567.74,350.06,341.04,26.44,0000 0000 0000 0000 000000
2015-06-17 12:04:29,0.04,0.07,0.00,26.85,30.01,32.35,4.67,22.71,1009.79,2027.00,3473.94,3283.51,3567.17,350.28,341.10,26.47,0000 0000 0000 0000 000000
2015-06-17 12:09:30,0.02,0.07,0.00,26.84,30.03,32.38,4.68,22.67,1009.78,2027.00,3473.49,3283.04,3567.00,350.88,341.76,26.50,0000 0000 0000 0000 000000
2015-06-17 12:14:31,0.01,0.07,0.00,26.85,30.06,32.40,4.62,22.68,1009.78,2026.99,3473.03,3283.00,3566.85,349.60,340.48,26.53,0000 0000 0000 0000 000000
2015-06-17 12:19:32,0.00,0.07,0.00,26.85,30.08,32.42,4.65,22.82,1009.70,2026.91,3472.95,3282.88,3566.20,349.83,340.45,26.56,0000 0000 0000 0000 000000
2015-06-17 12:24:34,0.00,0.07,0.00,26.86,30.11,32.45,4.66,22.82,1009.52,2026.63,3472.54,3282.20,3566.00,350.29,341.18,26.59,0000 0000 0000 0000 000000
2015-06-17 12:29:35,-0.04,0.07,0.00,26.87,30.13,32.48,4.59,22.70,1009.40,2026.29,3472.06,3282.02,3565.93,349.74,340.51,26.62,0000 0000 0000 0000 000000
2015-06-17 12:34:36,-0.01,0.07,0.00,26.87,30.15,32.49,4.70,22.67,1009.39,2026.09,3472.00,3282.00,3565.37,350.13,340.68,26.65,0000 0000 0000 0000 000000
2015-06-17 12:39:37,0.02,0.07,0.00,26.88,30.17,32.51,4.62,22.66,1009.32,2026.00,3471.81,3281.83,3565.01,350.15,340.66,26.68,0000 0000 0000 0000 000000
2015-06-17 12:44:39,0.03,0.07,0.00,26.90,30.20,32.53,4.72,22.67,1009.30,2026.00,3471.27,3281.35,3564.99,350.58,341.30,26.71,0000 0000 0000 0000 000000
2015-06-17 12:49:39,0.01,0.07,0.00,26.91,30.22,32.55,4.68,22.65,1009.29,2026.00,3471.02,3281.07,3564.97,350.09,340.70,26.73,0000 0000 0000 0000 000000
2015-06-17 12:54:41,0.01,0.07,0.00,26.92,30.24,32.56,4.63,22.70,1009.29,2026.00,3471.00,3281.01,3564.42,349.96,340.63,26.76,0000 0000 0000 0000 000000
2015-06-17 12:59:42,0.01,0.07,0.00,26.92,30.26,32.58,4.57,22.69,1009.23,2025.97,3470.84,3280.98,3564.02,349.49,340.20,26.79,0000 0000 0000 0000 000000